Theta_e
311 312 312 312 312 312 311 311 310 308 307 307 307 308 311 313 313 313 313 313 315 315 315 315 316 315 315 316 316 312 311 315 316 319 317 315 315 314 312 314 313 312 311 310 311
312 312 312 312 312 312 312 312 311 311 309 308 307 307 310 312 312 313 313 315 315 315 315 315 313 314 314 317 316 314 311 313 314 316 316 315 313 314 314 313 312 313 309 309 309
311 311 312 312 312 312 312 312 312 312 311 310 308 307 309 312 315 314 317 315 315 313 315 315 315 314 316 316 316 315 315 316 317 316 314 315 314 312 313 312 310 311 309 305 304
310 309 309 309 310 311 311 312 312 312 312 311 309 307 309 313 309 316 315 317 314 312 315 314 313 315 316 317 316 318 315 315 317 316 315 315 313 313 310 314 312 308 308 305 303
312 312 311 309 308 306 306 307 310 311 311 311 309 308 311 315 312 313 314 314 312 311 313 312 314 315 316 314 316 317 316 315 314 314 312 313 313 312 310 308 308 308 306 306 305
313 314 313 312 311 309 307 305 305 307 309 310 309 308 312 310 312 314 314 312 311 312 313 312 312 313 315 315 315 314 315 314 313 313 313 314 313 312 312 310 308 308 307 305 306
314 314 315 315 313 310 309 308 305 304 306 308 308 309 316 309 312 313 313 312 310 312 311 312 314 314 314 315 314 314 314 312 313 312 312 311 313 312 313 311 310 308 306 305 306
316 317 317 318 318 311 307 308 306 305 305 307 308 312 308 311 313 313 312 311 310 311 311 313 313 313 314 313 311 314 312 313 311 311 312 312 314 312 311 310 310 308 307 305 305
317 318 319 319 319 313 307 306 307 306 306 309 311 314 311 312 313 313 313 311 311 310 311 312 313 312 313 311 309 309 308 310 312 311 312 311 313 313 310 308 308 307 306 306 307
318 319 320 320 319 312 308 308 308 308 312 313 314 313 311 312 313 313 312 311 310 311 311 311 310 311 310 308 310 309 310 310 311 312 311 311 312 312 311 310 307 307 305 305 306
320 320 321 321 320 311 308 311 306 306 310 307 309 309 312 313 314 312 311 310 310 311 309 310 309 310 310 310 310 309 309 310 310 310 312 312 313 312 312 310 308 310 310 309 306
320 320 321 321 320 314 310 310 309 308 306 306 306 308 311 313 313 311 310 310 310 310 309 311 311 309 309 309 311 311 311 311 311 311 310 311 312 311 310 312 312 311 310 309 310
321 321 322 321 320 317 310 308 309 310 310 308 307 306 306 310 310 312 308 308 309 310 310 311 311 311 310 311 312 311 312 312 312 311 309 308 311 309 308 311 311 311 311 311 310
322 322 322 321 317 317 311 310 307 310 304 306 309 310 310 310 309 308 308 309 310 310 309 309 310 310 311 312 312 313 311 312 311 311 312 310 313 311 310 309 309 310 311 311 311
323 322 322 321 320 316 314 311 308 306 318 311 308 309 310 307 308 308 307 309 310 311 311 309 311 310 311 312 310 313 310 310 310 310 311 311 312 313 309 309 310 311 310 310 310
324 323 321 320 318 318 315 308 308 308 315 308 308 311 310 310 310 307 308 307 308 310 308 310 309 310 309 310 308 310 312 311 308 308 313 311 311 313 309 311 310 310 310 310 311
321 322 321 319 318 315 317 307 319 316 311 312 309 311 310 310 311 308 308 309 309 309 307 308 309 308 310 311 310 311 311 312 311 312 316 309 311 313 310 309 308 309 310 309 310
320 320 320 320 319 316 318 318 323 317 311 312 311 310 311 310 311 309 308 308 306 308 308 309 312 309 308 310 310 309 311 313 313 313 313 307 312 312 309 310 309 308 309 306 304
314 317 317 318 319 318 316 323 323 319 317 318 317 319 311 310 309 309 308 308 307 307 310 309 310 308 308 309 310 310 312 311 312 301 308 311 309 310 307 307 306 305 304 303 302
311 315 315 317 317 313 316 322 319 316 317 314 321 318 317 309 309 310 310 308 309 306 307 309 312 307 306 306 305 308 308 313 311 313 311 311 311 313 311 309 310 306 306 305 302
308 313 312 315 314 312 318 318 319 314 315 317 319 320 317 312 309 313 313 310 308 310 306 309 311 312 306 307 310 307 309 308 309 313 316 316 314 313 311 308 307 306 305 302 301
308 310 312 314 315 314 318 317 315 314 313 316 315 318 319 319 320 319 318 312 307 309 311 310 313 316 315 310 305 306 309 310 313 313 310 314 314 312 311 308 307 304 303 302 304
308 308 311 313 315 316 315 315 315 316 315 316 317 314 316 317 318 317 317 315 314 314 314 311 314 319 316 313 311 308 310 310 310 310 312 313 313 312 311 311 308 307 308 306 304
304 305 309 311 312 313 313 313 315 313 314 315 316 315 316 317 316 318 317 314 312 313 314 313 316 318 318 316 313 312 309 309 310 312 313 313 312 310 311 310 310 309 309 309 309
301 303 304 309 310 311 312 312 312 312 312 313 314 314 315 316 315 315 314 312 312 312 312 314 316 316 316 316 316 316 316 315 314 314 316 315 313 311 311 311 310 309 309 308 306
299 300 300 301 302 306 308 310 312 311 311 311 312 303 305 307 307 307 305 307 307 304 304 305 312 312 314 314 313 315 315 314 314 315 316 314 314 313 312 313 313 312 311 311 311
295 296 298 298 299 300 301 304 305 304 302 304 300 298 299 299 299 298 298 299 300 300 300 302 305 308 310 311 314 316 314 314 314 313 314 315 313 312 312 311 310 310 306 303 302
Wind_Speed
9 10 10 11 11 11 12 12 12 12 13 12 12 12 10 9 9 10 7 7 6 9 8 8 6 4 3 0 2 3 3 3 5 3 4 1 3 2 1 2 2 6 4 3 14
10 11 11 12 12 13 12 12 12 13 14 15 15 14 11 10 9 13 15 8 9 11 11 11 4 4 1 2 1 4 4 8 6 3 4 3 5 3 2 3 4 4 1 5 29
11 11 11 12 12 13 13 14 14 14 14 14 15 15 11 9 5 6 4 14 12 10 8 7 5 6 2 3 4 5 6 5 5 4 4 3 3 4 5 7 9 10 7 9 14
12 14 15 14 14 14 14 14 14 15 15 15 15 14 9 3 5 3 1 12 14 13 9 5 3 4 4 5 6 3 9 7 5 3 3 4 2 4 9 15 6 12 6 9 12
12 13 13 14 15 15 16 16 16 15 15 15 14 12 4 1 10 10 6 11 14 14 14 6 5 5 5 4 2 6 5 6 7 7 6 3 11 8 11 12 9 8 8 14 14
11 12 13 14 15 16 16 15 15 15 15 15 14 8 2 4 8 9 9 12 12 16 9 9 7 6 4 5 5 3 5 7 6 7 4 6 7 5 16 4 12 11 13 13 18
10 13 15 18 19 20 18 15 14 13 13 13 12 5 3 15 7 8 12 12 15 13 4 9 5 3 0 4 3 4 9 8 10 7 9 5 13 12 28 3 10 12 11 12 18
11 14 17 19 23 26 22 18 16 14 14 11 7 7 7 6 9 13 12 7 7 10 5 2 4 3 2 4 7 3 3 5 0 6 5 11 18 13 9 7 14 13 11 10 13
11 13 16 19 23 27 23 20 19 16 8 4 6 5 8 2 5 12 13 5 6 3 2 2 2 3 3 4 5 2 6 8 12 10 5 7 12 17 6 8 12 11 11 12 15
10 13 15 19 24 24 24 20 7 3 6 6 2 2 4 6 5 5 13 8 4 6 3 2 4 1 1 4 8 7 6 6 8 3 5 6 15 14 11 6 11 11 10 10 12
11 13 16 19 23 20 22 4 6 3 2 7 5 5 2 5 7 8 8 10 5 4 6 4 4 10 21 16 14 4 6 7 8 8 6 10 17 19 19 10 13 18 18 18 16
13 13 15 17 22 15 11 6 3 2 7 10 12 9 15 4 3 4 10 6 5 7 5 1 11 19 4 6 10 11 18 19 14 16 7 14 22 11 10 19 20 19 20 19 19
14 14 14 15 17 9 6 5 1 2 2 9 6 5 5 10 7 6 11 5 5 6 9 15 10 11 12 9 9 16 14 18 16 6 5 10 21 10 11 20 20 21 21 19 21
16 14 13 14 3 10 1 7 2 3 2 7 3 2 1 4 2 4 2 3 3 11 7 8 11 15 8 8 14 15 14 14 9 2 10 3 19 3 6 12 12 17 17 20 21
17 15 12 7 10 4 4 8 5 2 6 3 1 2 3 4 1 4 1 3 4 3 4 10 4 5 10 22 9 17 4 7 3 4 4 6 6 4 8 8 15 17 16 19 21
19 16 11 3 5 7 7 9 1 4 8 5 1 3 3 1 1 1 2 2 0 3 5 14 2 5 8 3 6 1 2 4 4 2 6 12 10 25 6 11 7 13 17 20 21
3 7 12 6 4 6 4 4 2 5 3 3 1 2 2 3 3 4 4 5 5 3 4 3 6 4 5 4 1 4 4 4 3 0 9 8 8 26 8 9 10 15 17 18 19
6 9 14 15 15 10 5 3 7 3 6 2 2 3 4 6 7 6 4 4 6 3 2 2 19 8 6 12 9 10 9 6 8 10 17 6 8 15 13 13 12 17 19 12 6
7 8 7 16 15 16 4 7 5 5 5 5 6 5 5 6 7 6 8 6 8 16 10 5 12 3 5 3 9 4 7 12 4 2 1 6 14 11 7 9 10 13 9 12 10
2 4 7 14 20 11 3 19 6 5 2 1 8 8 7 5 5 5 7 4 5 11 8 5 7 2 4 3 3 5 1 2 2 3 6 7 8 15 16 14 18 11 13 15 9
4 2 5 17 22 2 7 8 9 8 6 9 13 15 10 6 8 9 7 4 5 4 8 4 5 7 2 7 7 0 4 4 2 4 12 15 11 31 15 6 9 10 11 10 10
3 4 10 30 5 3 11 9 6 6 9 14 9 16 20 21 19 15 17 14 1 4 4 5 4 6 18 10 5 5 10 8 10 11 10 15 17 31 21 18 6 7 8 8 5
2 3 15 14 8 12 8 8 6 13 14 5 11 11 13 19 18 20 25 22 17 17 6 6 3 10 4 11 14 11 19 16 15 13 19 16 17 27 22 22 17 11 16 14 11
2 2 4 3 8 8 13 16 14 6 8 10 14 13 18 22 22 16 21 12 12 18 20 9 15 17 18 18 6 7 13 15 21 15 21 23 28 29 34 29 23 20 20 21 20
2 4 2 4 10 13 14 11 14 14 9 3 4 11 12 12 10 10 10 11 13 15 5 7 16 18 24 28 28 29 28 28 27 27 23 27 27 24 28 33 22 17 17 13 8
2 1 3 3 2 3 5 5 4 2 2 4 6 8 5 3 5 8 3 3 3 8 9 8 8 13 20 26 28 32 33 34 33 33 28 28 29 27 29 31 30 29 19 18 17
2 3 2 4 3 1 4 5 4 4 3 4 4 7 8 9 9 13 14 16 17 19 24 11 10 13 25 17 22 23 29 35 32 28 22 25 28 21 20 22 22 21 17 17 17
Wind_Direction
4 2 1 2 360 0 1 1 2 0 360 359 355 345 330 311 279 271 245 238 211 188 171 155 162 161 163 294 168 95 64 252 251 233 262 301 241 270 313 144 233 205 173 296 166
352 352 350 348 347 345 344 344 345 347 347 348 348 341 331 322 295 257 254 224 209 186 174 167 169 154 44 230 182 114 149 226 217 229 239 244 206 238 222 218 245 266 70 132 161
343 338 335 333 332 331 330 330 331 333 336 338 341 337 329 330 314 246 303 210 206 199 200 186 139 146 209 155 202 185 213 220 254 233 208 236 252 214 202 252 219 214 198 165 168
343 341 337 328 320 318 316 316 318 320 324 328 333 331 321 349 291 279 232 179 203 204 190 186 154 170 206 215 201 202 243 227 268 247 249 232 247 242 201 238 208 226 172 167 183
359 5 360 347 335 322 311 307 306 308 312 317 325 321 313 347 250 272 240 193 199 200 198 175 168 171 202 211 241 231 254 249 232 272 251 290 244 227 248 245 248 250 173 188 198
359 5 0 353 345 333 324 314 305 301 302 306 313 303 146 248 252 253 224 202 203 200 200 180 202 205 235 234 187 248 249 263 269 246 246 222 279 137 261 239 240 234 221 206 206
351 354 356 355 349 338 325 313 304 292 290 293 294 244 182 235 242 244 220 220 214 212 204 224 215 163 233 292 273 291 301 313 251 227 232 141 285 229 253 188 247 250 237 222 220
348 354 354 352 350 342 328 314 296 286 284 284 259 181 242 256 259 221 216 237 230 230 243 310 201 194 184 292 354 307 333 309 283 147 239 144 258 253 261 200 257 248 255 248 238
340 349 352 349 346 342 334 322 300 289 275 226 167 166 260 211 204 228 218 209 203 187 144 115 139 189 13 94 337 307 246 226 304 211 151 180 245 269 258 203 255 261 251 251 256
328 337 345 346 343 343 340 327 339 103 117 135 102 49 262 228 195 204 198 175 136 118 72 111 55 182 71 130 227 219 223 254 244 230 170 237 253 273 272 255 250 266 264 258 255
319 330 339 345 344 346 350 360 11 4 350 202 217 236 258 174 172 182 170 155 107 109 175 187 138 209 231 208 227 202 224 236 253 246 213 232 236 247 265 261 254 261 259 255 248
306 318 332 342 341 348 7 67 153 215 305 271 253 272 261 175 192 228 161 148 151 202 147 152 214 223 234 198 228 247 255 260 272 269 206 263 257 247 249 265 257 254 259 252 254
293 306 319 343 339 356 49 70 99 193 241 287 222 211 256 179 222 236 153 147 168 183 207 225 231 224 228 233 230 231 239 253 255 297 254 293 277 240 244 257 273 264 255 259 247
282 290 305 334 342 342 43 359 330 192 19 272 245 317 353 165 230 24 197 153 215 223 212 235 246 229 213 225 219 261 225 250 255 279 275 118 294 138 232 245 254 259 251 249 252
267 272 284 311 312 327 325 336 321 196 304 256 207 336 43 119 353 1 49 65 239 205 171 242 205 186 217 234 191 258 181 231 238 217 337 177 260 243 197 234 249 257 253 253 249
256 249 244 255 276 281 316 326 158 43 254 306 57 24 75 31 237 37 81 41 139 273 224 251 252 211 227 202 204 131 83 46 54 103 275 209 195 279 179 210 240 254 255 257 259
236 219 211 214 200 209 307 24 333 201 302 261 128 170 165 221 255 177 167 174 195 297 263 315 219 213 160 233 172 178 102 300 325 76 231 182 188 253 293 261 225 240 254 257 259
231 213 209 226 214 199 68 64 236 199 258 305 114 152 216 162 241 198 183 226 239 180 274 240 293 174 178 202 193 202 186 184 208 246 266 110 230 267 225 244 240 239 247 270 265
273 249 230 225 221 207 120 230 232 205 203 231 326 290 230 228 210 153 209 221 216 187 200 196 267 196 187 193 159 189 194 234 310 333 12 257 269 296 259 272 294 271 285 266 255
262 244 231 232 207 158 196 234 210 229 235 204 244 203 222 209 195 183 196 197 231 192 213 259 266 90 347 323 321 196 205 78 225 225 245 237 261 266 282 287 276 292 277 279 267
275 266 232 202 167 185 222 234 235 195 185 215 249 251 240 198 209 238 259 257 217 209 183 200 199 281 64 190 203 224 257 229 244 196 258 265 264 266 265 293 275 296 303 310 288
238 239 185 165 205 217 235 227 210 200 202 245 259 253 259 270 261 254 253 232 164 143 201 218 200 215 251 256 222 210 223 208 237 250 237 251 254 273 285 263 236 267 299 310 304
232 240 187 185 230 231 236 252 253 255 244 219 241 233 233 252 265 256 259 256 260 258 238 178 220 271 244 279 262 228 235 231 239 254 252 260 263 269 274 262 259 295 295 295 298
292 261 193 225 240 257 245 251 249 216 250 248 260 267 274 269 257 265 266 270 245 236 231 221 247 243 251 255 275 237 236 228 235 246 248 244 257 262 272 268 268 266 274 282 287
249 250 287 221 232 242 253 259 261 271 238 187 242 253 272 276 286 282 307 333 316 322 313 235 251 234 235 246 250 257 260 263 249 251 252 255 253 258 267 275 279 282 276 289 304
272 320 342 288 253 241 209 208 230 243 280 287 278 19 348 288 332 306 321 18 282 324 343 318 297 309 294 265 246 244 245 250 252 252 255 255 253 251 256 267 276 281 301 291 284
301 9 345 282 333 110 240 245 263 61 250 227 353 325 310 319 324 297 283 269 253 267 277 263 279 293 284 288 276 258 245 251 257 262 261 259 260 285 294 289 298 311 9 10 358